Home   Weather   Olathe   Past weeks

Flag for USA Past Weather in Olathe, Kansas, USA — Yesterday and Last 2 Weeks

Now
31 °F

Ice fog.


Feels Like: 25 °F
Forecast: 27 / 48 °F
Wind: 6 mph from Southwest

Location: Johnson County Executive Airport

Current Time: Jan 18, 2017 at 2:02:48 am

Latest Report: Jan 18, 2017 at 1:32 am


Visibility: 1 mi

Pressure: 30.16 "Hg

Humidity: 100%

Dew Point: 31 °F

Location of OlatheLocation

Past Weather in Olathe — Graph

°F

Olathe Temperature Yesterday

Maximum temperature yesterday: 39 °F (at 3:53 pm)
Minimum temperature yesterday: 29 °F (at 10:16 pm)
Average temperature yesterday: 34 °F

High & Low Weather Summary for the Past Weeks

 TemperatureHumidityPressure
High63 °F (Jan 11, 2:53 pm)100% (Jan 3, 12:37 am)30.76 "Hg (Jan 3, 12:37 am)
Low0 °F (Jan 7, 2:53 am)43% (Jan 11, 2:53 pm)29.38 "Hg (Jan 10, 5:53 am)
Average27 °F83%30.20 "Hg
* Reported Jan 3 12:37 am — Jan 18 12:53 am, Olathe, Weather by CustomWeather, © 2017

Note: Actual official high and low records may vary slightly from our data, if they occured in-between our weather recording intervals... More about our weather records

Advertising

Olathe Weather History for the Previous 24 Hours

Scroll right to see more
 ConditionsComfort  
Time TempWeatherWind HumidityBarometerVisibility
12:53 am
Wed, Jan 18
30 °FIce fog.5 mph100%30.18 "Hg5 mi
12:35 am31 °FIce fog.7 mph100%30.15 "Hg5 mi
12:08 am31 °FIce fog.8 mph100%30.17 "Hg5 mi
11:44 pm
Tue, Jan 17
31 °FIce fog.6 mph100%30.17 "Hg4 mi
11:35 pm30 °FIce fog.7 mph100%30.17 "Hg2 mi
11:14 pm29 °FIce fog.6 mph100%30.17 "Hg2 mi
10:53 pm31 °FIce fog.5 mph100%30.19 "Hg4 mi
10:16 pm29 °FIce fog.5 mph100%30.15 "Hg2 mi
10:04 pm31 °FIce fog.3 mph100%30.15 "Hg1 mi
9:53 pm30 °FIce fog.5 mph100%30.19 "Hg2 mi
9:38 pm30 °FIce fog.5 mph100%30.15 "Hg3 mi
8:53 pm31 °FPassing clouds.6 mph100%30.19 "Hg9 mi
7:53 pm30 °FClear.5 mph100%30.18 "Hg9 mi
7:39 pm31 °FClear.5 mph100%30.15 "Hg9 mi
6:53 pm32 °FClear.No wind100%30.17 "Hg7 mi
5:53 pm35 °FClear.3 mph100%30.16 "Hg10 mi
4:53 pm39 °FPassing clouds.3 mph89%30.14 "Hg10 mi
4:38 pm39 °FScattered clouds.5 mph89%30.11 "Hg10 mi
3:53 pm39 °FOvercast.5 mph89%30.14 "Hg10 mi
2:53 pm38 °FOvercast.7 mph93%30.12 "Hg10 mi
2:30 pm37 °FOvercast.8 mph96%30.10 "Hg10 mi
1:53 pm37 °FLow clouds.9 mph93%30.12 "Hg10 mi
12:53 pm36 °FLow clouds.6 mph97%30.12 "Hg10 mi
11:53 am35 °FFog.8 mph100%30.12 "Hg6 mi
10:53 am34 °FFog.8 mph100%30.13 "Hg6 mi
10:40 am34 °FFog.6 mph100%30.10 "Hg4 mi
10:32 am34 °FFog.7 mph100%30.11 "Hg2 mi
10:10 am34 °FFog.9 mph100%30.10 "Hg1 mi
9:53 am34 °FFog.8 mph100%30.12 "Hg2 mi
9:37 am34 °FFog.9 mph100%30.09 "Hg2 mi
8:53 am33 °FFog.7 mph100%30.11 "Hg2 mi
7:53 am33 °FFog.7 mph100%30.08 "Hg4 mi
6:53 am33 °FFog.8 mph100%30.06 "Hg4 mi
6:39 am33 °FFog.8 mph100%30.04 "Hg4 mi
5:53 am33 °FLow clouds.9 mph100%30.04 "Hg9 mi
4:53 am33 °FFog.9 mph100%30.03 "Hg5 mi
3:53 am34 °FFog.6 mph100%30.02 "Hg5 mi
2:53 am34 °FLow clouds.10 mph100%30.01 "Hg8 mi
2:40 am34 °FLow clouds.9 mph100%30.00 "Hg9 mi
Weather by CustomWeather, © 2017

See weather overviewHow to use our weather pages